This is the latest recevied weather packets stored in our database for station/object KD2FKI. If no packets are shown the sender has not sent any weather packets the latest 10 day(s).
| Time | Temp. | Humidity | Pressure | Rain* | Wind** | Luminosity | Snow |
|---|---|---|---|---|---|---|---|
| 1777866644 | 6.67° C | 70% | - | 0 mm | - | - | - |
| 1777866032 | 6.67° C | 68% | - | 0 mm | - | - | - |
| 1777865441 | 6.67° C | 69% | - | 0 mm | - | - | - |
| 1777864830 | 6.67° C | 69% | - | 0 mm | - | - | - |
| 1777864240 | 7.22° C | 68% | - | 0 mm | - | - | - |
| 1777863646 | 7.22° C | 69% | - | 0 mm | - | - | - |
| 1777863036 | 7.78° C | 64% | - | 0 mm | - | - | - |
| 1777862444 | 7.78° C | 61% | - | 0 mm | - | - | - |
| 1777861834 | 8.33° C | 60% | - | 0 mm | - | - | - |
| 1777861242 | 8.89° C | 59% | - | 0 mm | - | - | - |
| 1777860632 | 8.89° C | 56% | - | 0 mm | - | - | - |
| 1777860038 | 9.44° C | 56% | - | 0 mm | - | - | - |
| 1777859446 | 10° C | 53% | - | 0 mm | - | - | - |
| 1777858837 | 10.56° C | 52% | - | 0 mm | - | - | - |
| 1777858243 | 11.11° C | 50% | - | 0 mm | - | - | - |
| 1777857634 | 11.67° C | 47% | - | 0 mm | - | - | - |
| 1777857041 | 12.78° C | 43% | - | 0 mm | - | - | - |
| 1777856432 | 13.33° C | 41% | - | 0 mm | - | - | - |
| 1777855838 | 13.89° C | 39% | - | 0 mm | - | - | - |
| 1777855246 | 14.44° C | 37% | - | 0 mm | - | - | - |
| 1777854636 | 15° C | 37% | - | 0 mm | - | - | - |
| 1777854043 | 15° C | 37% | - | 0 mm | - | - | - |
| 1777853435 | 15° C | 36% | - | 0 mm | - | - | - |
| 1777852841 | 15.56° C | 35% | - | 0 mm | - | - | - |
| 1777852231 | 16.11° C | 34% | - | 0 mm | - | - | - |
* Rain latest hour (hover to see other rain measurements)
** Current wind speed in m/s (hover to see current wind gust speed)